{"data":{"norad_id":64745,"intl_designator":"2025-144X","name":"STARLINK-34581","alt_names":[],"object_type":"PAYLOAD","status":"ACTIVE","operator":null,"country":"US","launch_date":"2025-07-02","launch_site_code":"AFETR","launch_vehicle":null,"mission":null,"orbit_class":"UNKNOWN","rcs_meters":null,"size_class":null,"mass_kg":null,"dimensions":null,"purposes":["comms"],"wikipedia_slug":null,"has_3d_model":false,"image_url":null,"decayed_at":null,"tle_current":{"epoch":"2026-09-20T17:37:03.710208Z","epoch_age_seconds":107707,"freshness":"FRESH","line1":"1 64745U 25144X   26263.73407072  .00020361  00000+0  61185-3 0  9996","line2":"2 64745  53.1597 354.3966 0001140  75.7826 284.3303 15.34413561 69589","mean_motion":15.34413561,"eccentricity":0.000114,"inclination_deg":53.1597,"raan_deg":354.3966,"arg_perigee_deg":75.7826,"mean_anomaly_deg":284.3303,"bstar":0.00061185,"rev_number":6958,"period_min":93.846928663843,"perigee_km":461.88308316159,"apogee_km":463.44278554662,"semimajor_km":6840.7999343541,"source":"CELESTRAK","updated_at":"2026-09-21T09:00:35.413482Z"}}}